This demonstration page uses our WeatherBlox Daily Observations layout. Learn more.

39.08367, -84.50855

Hourly Observations for January 7, 2019

Temp ( °F °C ) Dew Point ( °F °C ) Humidity (%) Winds ( mph kmh ) Pressure ( in mb ) Visibility ( mi km ) Precip ( " mm )
12:53 am 00:53 Mostly Clear 43 6.1 36 2.2 76 76 NE 5 7 30.21 1023 10 16.09344 0 0
1:53 am 01:53 Clear 45 7.2 36 2.2 71 71 Calm 30.18 1022 10 16.09344 0 0
2:53 am 02:53 Clear 45 7.2 36 2.2 71 71 E 6 9 30.15 1021 10 16.09344 0 0
3:53 am 03:53 Clear 45 7.2 36 2.2 71 71 VRB 6 9 30.15 1021 10 16.09344 0 0
4:53 am 04:53 Clear 45 7.2 36 2.2 71 71 Calm 30.12 1020 10 16.09344 0 0
5:53 am 05:53 Clear 44 6.7 36 2.2 73 73 E 5 7 30.12 1020 10 16.09344 0 0
6:53 am 06:53 Clear 43 6.1 36 2.2 76 76 NE 3 6 30.12 1020 10 16.09344 0 0
7:53 am 07:53 Clear 43 6.1 36 2.2 76 76 NE 3 6 30.09 1019 10 16.09344 0 0
8:53 am 08:53 Sunny 44 6.7 37 2.8 76 76 Calm 30.09 1019 10 16.09344 0 0
9:53 am 09:53 Sunny 47 8.3 39 3.9 74 74 SSW 7 11 30.06 1018 10 16.09344 0 0
10:53 am 10:53 Sunny 49 9.4 39 3.9 69 69 SSW 8 13 30.03 1017 10 16.09344 0 0
11:53 am 11:53 Sunny 52 11.1 41 5 66 66 S 9 15 29.97 1015 10 16.09344 0 0
12:53 pm 12:53 Sunny 55 12.8 42 5.6 62 62 S 9 15 29.91 1013 10 16.09344 0 0
1:53 pm 13:53 Sunny 59 15 43 6.1 56 56 S 13 20 29.88 1012 10 16.09344 0 0
2:53 pm 14:53 Mostly Cloudy with Light Rain 59 15 41 5 51 51 SSW 14 22 29.85 1011 10 16.09344 0.001 0.001
3:53 pm 15:53 Cloudy with Light Rain 59 15 43 6.1 56 56 S 17 28 29.83 1010 10 16.09344 0.001 0.001
4:53 pm 16:53 Cloudy 59 15 41 5 51 51 SSW 17 28 29.85 1011 10 16.09344 0.001 0.001
5:53 pm 17:53 Cloudy 59 15 41 5 51 51 SW 21 33 29.88 1012 10 16.09344 0.001 0.001
6:53 pm 18:53 Cloudy 59 15 42 5.6 54 54 SW 22 35 29.88 1012 10 16.09344 0 0
7:53 pm 19:53 Cloudy 59 15 44 6.7 58 58 SW 20 31 29.88 1012 10 16.09344 0 0
8:53 pm 20:53 Cloudy 58 14.4 45 7.2 62 62 SSW 14 22 29.91 1013 10 16.09344 0 0
9:53 pm 21:53 Mostly Cloudy 57 13.9 46 7.8 67 67 SSW 14 22 29.91 1013 10 16.09344 0 0
10:53 pm 22:53 Cloudy 58 14.4 47 8.3 67 67 SSW 15 24 29.94 1014 10 16.09344 0 0
11:53 pm 23:53 Clear 55 12.8 48 8.9 77 77 SW 13 20 29.91 1013 10 16.09344 0 0

Powered by AerisWeather